When you browse on this site, cookies collect data to enhance your experience and personalize the content and advertising you see.
Visit our Privacy Policy to learn more. By continuing to use the site, you agree to this use of cookies and data.
  • In Hungary
  • List of Countries
  • For 7 days
  • Water Temperature
  • Weather Map
  • News
  • Weather Widgets
  • user-avatar
    Login

    Hourly Weather Idzhewan

    Today, 4 June, Thursday

    Time Temperature Precipitation Wind Pressure Humidity
    00:00 +17°C° 0.2 mm 2 mps 689 mmHg 81%
    01:00 +16°C° 0 mm 1 mps 689 mmHg 80%
    02:00 +16°C° 0 mm 1 mps 689 mmHg 79%
    03:00 +16°C° 0 mm 2 mps 689 mmHg 77%
    04:00 +17°C° 0 mm 2 mps 689 mmHg 77%
    05:00 +18°C° 0 mm 2 mps 690 mmHg 77%
    06:00 +19°C° 0 mm 2 mps 690 mmHg 77%
    07:00 +21°C° 0 mm 2 mps 690 mmHg 70%
    08:00 +24°C° 0 mm 1 mps 690 mmHg 64%
    09:00 +26°C° 0 mm 1 mps 691 mmHg 58%
    10:00 +26°C° 0.2 mm 2 mps 691 mmHg 57%
    11:00 +27°C° 0.2 mm 2 mps 691 mmHg 57%
    12:00 +27°C° 0.2 mm 2 mps 691 mmHg 56%
    13:00 +27°C° 0.5 mm 2 mps 691 mmHg 57%
    14:00 +27°C° 0.5 mm 2 mps 691 mmHg 58%
    15:00 +27°C° 0.5 mm 2 mps 690 mmHg 59%
    16:00 +27°C° 0.3 mm 2 mps 691 mmHg 64%
    17:00 +26°C° 0.3 mm 1 mps 691 mmHg 68%
    18:00 +25°C° 0.3 mm 1 mps 691 mmHg 73%
    19:00 +24°C° 0 mm 1 mps 691 mmHg 74%
    20:00 +21°C° 0 mm 2 mps 691 mmHg 75%
    21:00 +19°C° 0 mm 2 mps 692 mmHg 76%
    22:00 +18°C° 0.1 mm 2 mps 692 mmHg 77%
    23:00 +17°C° 0.1 mm 2 mps 692 mmHg 78%

    Tomorrow, 5 June, Friday

    Time Temperature Precipitation Wind Pressure Humidity
    00:00 +18°C° 0.1 mm 1 mps 693 mmHg 79%
    01:00 +16°C° 0.1 mm 1 mps 693 mmHg 79%
    02:00 +16°C° 0.1 mm 1 mps 693 mmHg 79%
    03:00 +15°C° 0.1 mm 1 mps 693 mmHg 79%
    04:00 +16°C° 0 mm 1 mps 693 mmHg 78%
    05:00 +18°C° 0 mm 1 mps 694 mmHg 78%
    06:00 +18°C° 0 mm 1 mps 694 mmHg 77%
    07:00 +20°C° 0 mm 1 mps 694 mmHg 70%
    08:00 +22°C° 0 mm 1 mps 694 mmHg 62%
    09:00 +24°C° 0 mm 1 mps 694 mmHg 55%
    10:00 +25°C° 0.2 mm 1 mps 694 mmHg 54%
    11:00 +26°C° 0.2 mm 2 mps 694 mmHg 53%
    12:00 +26°C° 0.2 mm 2 mps 694 mmHg 52%
    13:00 +26°C° 0.4 mm 2 mps 694 mmHg 54%
    14:00 +26°C° 0.4 mm 2 mps 694 mmHg 55%
    15:00 +26°C° 0.4 mm 2 mps 694 mmHg 56%
    16:00 +25°C° 0.9 mm 2 mps 694 mmHg 63%
    17:00 +24°C° 0.9 mm 1 mps 694 mmHg 69%
    18:00 +22°C° 0.9 mm 1 mps 693 mmHg 76%
    19:00 +21°C° 0.1 mm 1 mps 694 mmHg 77%
    20:00 +19°C° 0.1 mm 1 mps 694 mmHg 79%
    21:00 +17°C° 0.1 mm 2 mps 695 mmHg 81%
    22:00 +17°C° 0.1 mm 2 mps 695 mmHg 80%
    23:00 +16°C° 0.1 mm 2 mps 695 mmHg 79%

    Day after tomorrow, 6 June, Saturday

    Time Temperature Precipitation Wind Pressure Humidity
    00:00 +16°C° 0.1 mm 2 mps 695 mmHg 78%
    01:00 +15°C° 0 mm 1 mps 695 mmHg 79%
    02:00 +15°C° 0 mm 1 mps 695 mmHg 79%
    03:00 +15°C° 0 mm 1 mps 695 mmHg 80%
    04:00 +16°C° 0 mm 1 mps 695 mmHg 80%
    05:00 +18°C° 0 mm 1 mps 696 mmHg 79%
    06:00 +19°C° 0 mm 1 mps 696 mmHg 79%
    07:00 +20°C° 0.1 mm 1 mps 696 mmHg 75%
    08:00 +21°C° 0.1 mm 1 mps 696 mmHg 71%
    09:00 +21°C° 0.1 mm 2 mps 696 mmHg 67%
    10:00 +23°C° 0.2 mm 2 mps 696 mmHg 67%
    11:00 +24°C° 0.2 mm 2 mps 696 mmHg 66%
    12:00 +24°C° 0.2 mm 3 mps 696 mmHg 66%
    13:00 +24°C° 0.3 mm 3 mps 696 mmHg 65%
    14:00 +24°C° 0.3 mm 2 mps 696 mmHg 65%
    15:00 +24°C° 0.3 mm 2 mps 695 mmHg 65%
    16:00 +24°C° 0.4 mm 2 mps 695 mmHg 69%
    17:00 +23°C° 0.4 mm 2 mps 695 mmHg 74%
    18:00 +21°C° 0.4 mm 2 mps 695 mmHg 78%
    19:00 +20°C° 0.6 mm 2 mps 696 mmHg 81%
    20:00 +19°C° 0.6 mm 1 mps 696 mmHg 83%
    21:00 +16°C° 0.6 mm 1 mps 696 mmHg 85%
    22:00 +16°C° 0.2 mm 1 mps 696 mmHg 85%
    23:00 +16°C° 0.2 mm 1 mps 696 mmHg 84%

    7 June, Sunday

    Time Temperature Precipitation Wind Pressure Humidity
    00:00 +16°C° 0.2 mm 1 mps 696 mmHg 84%
    01:00 +15°C° 0.1 mm 1 mps 696 mmHg 85%
    02:00 +15°C° 0.1 mm 1 mps 696 mmHg 85%
    03:00 +15°C° 0.1 mm 1 mps 696 mmHg 86%
    04:00 +16°C° 0 mm 1 mps 696 mmHg 85%
    05:00 +18°C° 0 mm 1 mps 696 mmHg 84%
    06:00 +18°C° 0 mm 1 mps 696 mmHg 83%
    07:00 +20°C° 0 mm 1 mps 696 mmHg 80%
    08:00 +21°C° 0 mm 1 mps 696 mmHg 76%
    09:00 +23°C° 0 mm 2 mps 696 mmHg 72%
    10:00 +23°C° 0.1 mm 2 mps 696 mmHg 71%
    11:00 +24°C° 0.1 mm 2 mps 696 mmHg 71%
    12:00 +25°C° 0.1 mm 2 mps 696 mmHg 70%
    13:00 +25°C° 0.1 mm 2 mps 695 mmHg 68%
    14:00 +26°C° 0.1 mm 2 mps 695 mmHg 66%
    15:00 +26°C° 0.1 mm 2 mps 695 mmHg 64%
    16:00 +26°C° 0 mm 2 mps 695 mmHg 67%
    17:00 +25°C° 0 mm 2 mps 695 mmHg 69%
    18:00 +25°C° 0 mm 1 mps 695 mmHg 72%
    19:00 +23°C° 0 mm 1 mps 695 mmHg 76%
    20:00 +21°C° 0 mm 1 mps 695 mmHg 80%
    21:00 +19°C° 0 mm 1 mps 695 mmHg 84%
    22:00 +19°C° 0 mm 1 mps 695 mmHg 84%
    23:00 +17°C° 0 mm 2 mps 695 mmHg 83%

    8 June, Monday

    Time Temperature Precipitation Wind Pressure Humidity
    00:00 +17°C° 0 mm 2 mps 695 mmHg 83%
    01:00 +17°C° 0 mm 2 mps 694 mmHg 84%
    02:00 +16°C° 0 mm 1 mps 694 mmHg 84%
    03:00 +16°C° 0 mm 1 mps 694 mmHg 84%
    04:00 +18°C° 0 mm 1 mps 694 mmHg 83%
    05:00 +19°C° 0 mm 1 mps 694 mmHg 82%
    06:00 +20°C° 0 mm 1 mps 694 mmHg 81%
    07:00 +21°C° 0 mm 1 mps 694 mmHg 75%
    08:00 +23°C° 0 mm 1 mps 694 mmHg 70%
    09:00 +24°C° 0 mm 2 mps 694 mmHg 65%
    10:00 +25°C° 0 mm 2 mps 694 mmHg 64%
    11:00 +26°C° 0 mm 2 mps 694 mmHg 63%
    12:00 +27°C° 0 mm 2 mps 694 mmHg 61%
    13:00 +27°C° 0 mm 2 mps 693 mmHg 62%
    14:00 +27°C° 0 mm 2 mps 693 mmHg 63%
    15:00 +27°C° 0 mm 2 mps 693 mmHg 64%
    16:00 +26°C° 0 mm 2 mps 693 mmHg 67%
    17:00 +26°C° 0 mm 1 mps 692 mmHg 70%
    18:00 +25°C° 0 mm 1 mps 692 mmHg 73%
    19:00 +24°C° 0 mm 1 mps 692 mmHg 76%
    20:00 +22°C° 0 mm 1 mps 693 mmHg 79%
    21:00 +20°C° 0 mm 1 mps 693 mmHg 82%
    22:00 +20°C° 0 mm 1 mps 693 mmHg 83%
    23:00 +19°C° 0 mm 1 mps 693 mmHg 83%

    9 June, Tuesday

    Time Temperature Precipitation Wind Pressure Humidity
    00:00 +19°C° 0 mm 1 mps 693 mmHg 84%
    01:00 +19°C° 0 mm 1 mps 693 mmHg 84%
    02:00 +18°C° 0 mm 1 mps 693 mmHg 85%
    03:00 +18°C° 0 mm 1 mps 693 mmHg 86%
    04:00 +19°C° 0 mm 1 mps 693 mmHg 84%
    05:00 +20°C° 0 mm 1 mps 693 mmHg 83%
    06:00 +20°C° 0 mm 1 mps 693 mmHg 82%
    07:00 +22°C° 0 mm 1 mps 693 mmHg 77%
    08:00 +23°C° 0 mm 1 mps 693 mmHg 71%
    09:00 +24°C° 0 mm 2 mps 693 mmHg 66%
    10:00 +25°C° 0 mm 2 mps 693 mmHg 66%
    11:00 +26°C° 0 mm 2 mps 693 mmHg 65%
    12:00 +26°C° 0 mm 2 mps 693 mmHg 65%
    13:00 +27°C° 0.1 mm 2 mps 693 mmHg 65%
    14:00 +27°C° 0.1 mm 2 mps 693 mmHg 65%
    15:00 +27°C° 0.1 mm 2 mps 692 mmHg 65%
    16:00 +26°C° 0 mm 2 mps 692 mmHg 66%
    17:00 +26°C° 0 mm 2 mps 692 mmHg 68%
    18:00 +25°C° 0 mm 1 mps 692 mmHg 70%
    19:00 +24°C° 0.3 mm 1 mps 693 mmHg 71%
    20:00 +22°C° 0.3 mm 1 mps 693 mmHg 72%
    21:00 +20°C° 0.3 mm 1 mps 693 mmHg 73%
    22:00 +20°C° 0.1 mm 1 mps 693 mmHg 74%
    23:00 +19°C° 0.1 mm 1 mps 693 mmHg 74%
    Show more